Regional Weather Roundup
Issued by NWS New Orleans/Baton Rouge, LA

Home | Current Version | Previous Version | Text Only | Print | Product List | Glossary Off
Versions: 1 2 3 4 5 6 7 8 9 10 11 12 13 14 15 16 17 18 19 20 21 22 23 24 25 26 27 28 29 30 31 32 33 34 35 36 37 38 39 40 41 42 43 44 45 46 47 48 49 50

292
ASUS44 KLIX 201313
RWRLIX
NEW ORLEANS REGIONAL WEATHER ROUNDUP
NATIONAL WEATHER SERVICE NEW ORLEANS LA
800 AM CDT WED AUG 20 2014

NOTE: "FAIR" INDICATES FEW OR NO CLOUDS BELOW 12,000 FEET WITH NO
      SIGNIFICANT WEATHER AND/OR OBSTRUCTIONS TO VISIBILITY.
      SKY/WX - SKY CONDITION AND SIGNIFICANT WEATHER.
      TMP - AIR TEMPERATURE.     DP    - DEWPOINT TEMPERATURE.
      RH  - RELATIVE HUMIDITY.   PRES  - PRESSURE.
      HI  - HEAT INDEX.          WCI   - WIND CHILL INDEX.

*  THESE STATIONS ARE NOT NWS OR FAA STATIONS AND ARE NOT UNDER
   NWS QUALITY CONTROL.

LAZ038-040-048-061>063-065>067-069-201400-
SOUTHEAST LOUISIANA

CITY           SKY/WX    TMP DP  RH WIND       PRES   REMARKS
N.O. AUDUBON     N/A     78  78  99 MISG        N/A
N.O. INTL ARPT PTSUNNY   83  76  79 CALM      30.05R
N.O. LAKEFRONT MOSUNNY   84  77  79 CALM      30.06R
N.O. DOWNTOWN*   N/A     84  73  70 CALM      30.06R
SLIDELL        MOSUNNY   79  74  84 N3        30.06R
BATON ROUGE    MOSUNNY   76  72  87 NE3       30.05R
BOOTHVILLE     SUNNY     86  76  71 SW6       30.06R HX  96
BELLE CHASSE   PTSUNNY   82  76  81 NE3       30.05R
BOGALUSA*        N/A     76  73  87 CALM      30.08R
GALLIANO*      NOT AVBL
NEW ROADS*       N/A     73  72  96 CALM      30.05R
GONZALES*        N/A     77  77  99 CALM      30.04R
HAMMOND*       MOSUNNY   77  72  83 CALM      30.07R
HOUMA*         MOSUNNY   79  75  89 CALM      30.04R
PORT FOURCHON* MOSUNNY   86  75  70 S8        30.06R HX  95

$$

MSZ070-080>082-201400-
SOUTHERN MISSISSIPPI

CITY           SKY/WX    TMP DP  RH WIND       PRES   REMARKS
MCCOMB         PTSUNNY   75  71  87 CALM      30.07R
GULFPORT       MOSUNNY   81  76  84 CALM      30.06R
BILOXI         MOSUNNY   81  76  84 CALM      30.06R
PASCAGOULA     SUNNY     81  76  84 NW3       30.06R
STENNIS ARPT*  SUNNY    N/A N/A N/A CALM      30.06

$$

COASTAL OBSERVATIONS
LAKE AND NEARSHORE STATIONS

STATION/POSITION TIME  TEMP    WIND        PRES    WAVE
                       AIR SEA DIR/SP/G            HT/PER
                 (UTC) (F)     (DEG/KT/KT) (MB)    (FT/S)
PASCAGOULA       1300   82     320/  3/  3 1017.4
WAVELAND YACHT   1300   81     340/  3/  3 1017.3
GRAND ISLE       1300   86 87  180/  4/  7 1018.0
SOUTHWEST PASS   1300   85 88  210/  5/  6 1018.0
NEW CANAL        1300   85 83     CALM     1018.0
SHELL BEACH      1300   83 82   CALM  /  1 1017.7

OFFSHORE STATIONS

STATION/POSITION TIME  TEMP    WIND        PRES    WAVE
                       AIR SEA DIR/SP/G            HT/PER
                 (UTC) (F)     (DEG/KT/KT) (MB)    (FT/S)
64 S DAUPHIN ISL 1229   86 87  240/  8/  8 1018.1

$$




USA.gov is the U.S. government's official web portal to all federal, state and local government web resources and services.